SCP
0 0 0 0 0 0 0 0 0 0 0 0 0 0 0 0 0 0 0 0 0 0 0 0 0 0 0 0 0 0 0 0 0 0 0 0 0 0 0 0 0 0 0
0 0 0 0 0 0 0 0 0 0 0 0 0 0 0 0 0 0 0 0 0 0 0 0 0 0 0 0 0 0 0 0 0 0 0 0 0 0 0 0 0 0 0
0 0 0 0 0 0 0 0 0 0 0 0 0 0 0 0 0 0 0 0 0 0 0 0 0 0 0 0 0 0 0 0 0 0 0 0 0 0 0 0 0 0 0
0 0 0 0 0 0 0 0 0 0 0 0 0 0 0 0 0 0 0 0 0 0 0 0 0 0 0 0 0 0 0 0 0 0 0 0 0 0 0 0 0 0 0
0 0 0 0 0 0 0 0 0 0 0 0 0 0 0 0 0 0 0 0 0 0 0 0 0 0 0 0 0 0 0 0 0 0 0 0 0 0 0 0 0 0 0
0 0 0 0 0 0 0 0 0 0 0 0 0 0 0 0 0 0 0 0 0 0 0 0 0 0 0 0 0 0 0 0 0 0 0 0 0 0 0 0 0 0 0
0 0 0 0 0 0 0 0 0 0 0 0 0 0 0 0 0 0 0 0 0 0 0 0 0 0 0 0 0 0 0 0 0 0 0 0 0 0 0 0 0 0 0
0 0 0 0 0 0 0 0 0 0 0 0 0 0 0 0 0 0 0 0 0 0 0 0 0 0 0 0 0 0 0 0 0 0 0 0 0 0 0 0 0 0 0
0 0 0 0 0 0 0 0 0 0 0 0 0 0 0 0 0 0 0 0 0 0 0 0 0 0 0 0 0 0 0 0 0 0 0 0 0 0 0 0 0 0 0
0 0 0 0 0 0 0 0 0 0 0 0 0 0 0 0 0 0 0 0 0 0 0 0 0 0 0 0 0 0 0 0 0 0 0 0 0 0 0 0 0 0 0
0 0 0 0 0 0 0 0 0 0 0 0 0 0 0 0 0 0 0 0 0 0 0 0 0 0 0 0 0 0 0 0 0 0 0 0 0 0 0 0 0 0 0
0 0 0 0 0 0 0 0 0 0 0 0 0 0 0 0 0 0 0 0 0 0 0 0 0 0 0 0 0 0 0 0 0 0 0 0 0 0 0 0 0 0 0
0 0 0 0 0 0 0 0 0 0 0 0 0 0 0 0 0 0 0 0 0 0 0 0 0 0 0 0 0 0 0 0 0 0 0 0 0 0 0 0 0 0 0
0 0 0 0 0 0 0 0 0 0 0 0 0 0 0 0 0 0 0 0 0 0 0 0 0 0 0 0 0 0 0 0 0 0 0 0 0 0 0 0 0 0 0
0 0 0 0 0 0 0 0 0 0 0 0 0 0 0 0 0 0 0 0 0 0 0 0 0 0 0 0 0 0 0 0 0 0 0 0 0 0 0 0 0 0 0
0 0 0 0 0 0 0 0 0 0 0 0 0 0 0 0 0 0 0 0 0 0 0 0 0 0 0 0 0 0 0 0 0 0 0 0 0 0 0 0 0 0 0
0 0 0 0 0 0 0 0 0 0 0 0 0 0 0 0 0 0 0 0 0 0 0 0 0 0 0 0 0 0 0 0 0 0 0 0 0 0 0 0 0 0 0
0 0 0 0 0 0 0 0 0 0 0 0 0 0 0 0 0 0 0 0 0 0 0 0 0 0 0 0 0 0 0 0 0 0 0 0 0 0 0 0 0 0 0
0 0 0 0 0 0 0 0 0 0 0 0 0 0 0 0 0 0 0 0 0 0 0 0 0 0 0 0 0 0 0 0 0 0 0 0 0 0 0 0 0 0 0
0 0 0 0 0 0 0 0 0 0 0 0 0 0 0 0 0 0 0 0 0 0 0 0 0 0 0 0 0 0 0 0 0 0 0 0 0 0 0 0 0 0 0
0 0 0 0 0 0 0 0 0 0 0 0 0 0 0 0 0 0 0 0 0 0 0 0 0 0 0 0 0 0 0 0 0 0 0 0 0 0 0 0 0 0 0
0 0 0 0 0 0 0 0 0 0 0 0 0 0 0 0 0 0 0 0 0 0 0 0 0 0 0 0 0 0 0 0 0 0 0 0 0 0 0 0 0 0 0
0 0 0 0 0 0 0 0 0 0 0 0 0 0 0 0 0 0 0 0 0 0 0 0 0 0 0 0 0 0 0 0 0 0 0 0 0 0 0 0 0 0 0
0 0 0 0 0 0 0 0 0 0 0 0 0 0 0 0 0 0 0 0 0 0 0 0 0 0 0 0 0 0 0 0 0 0 0 0 0 0 0 0 0 0 0
0 0 0 0 0 0 0 0 0 0 0 0 0 0 0 0 0 0 0 0 0 0 0 0 0 0 0 0 0 0 0 0 0 0 0 0 0 0 0 0 0 0 0
0 0 0 0 0 0 0 0 0 0 0 0 0 0 0 0 0 0 0 0 0 0 0 0 0 0 0 0 0 0 0 0 0 0 0 0 0 0 0 0 0 0 0
Wind_Speed_500mb
59 57 60 65 69 69 72 72 74 75 80 78 73 71 71 68 61 55 49 44 39 33 29 24 17 11 6 3 4 5 5 4 3 2 10 17 24 33 37 43 48 52 54
54 55 61 64 68 69 73 71 75 80 79 75 74 76 75 69 63 56 50 43 37 32 27 22 16 10 8 8 8 8 6 5 6 8 14 22 29 37 42 47 51 55 58
57 57 62 69 70 70 69 69 76 79 76 79 80 80 77 70 64 57 47 40 36 30 24 19 12 14 14 13 12 11 10 11 13 16 22 29 37 43 49 53 57 60 64
62 60 65 70 73 71 73 73 77 79 81 84 84 81 76 68 61 55 50 44 38 31 25 19 16 25 21 19 17 16 16 18 21 25 28 34 41 48 54 61 64 65 70
66 65 66 69 72 73 74 74 77 82 84 85 85 81 76 70 63 57 50 44 37 30 26 19 29 31 27 25 23 22 23 24 27 32 36 40 45 50 58 65 69 73 78
69 70 65 71 75 75 74 74 77 82 88 89 88 84 77 70 62 55 49 46 37 32 22 26 37 34 34 32 29 29 31 32 35 39 42 44 47 51 60 64 65 70 82
72 73 73 75 79 79 76 76 77 82 89 92 90 83 76 68 62 59 56 48 39 32 32 32 41 40 39 37 36 38 39 38 42 45 49 47 50 55 62 61 64 70 74
75 77 80 81 82 82 79 76 77 81 92 95 90 84 77 71 67 64 60 53 41 32 36 38 43 42 42 40 41 44 43 43 45 47 50 49 53 54 52 60 67 74 78
74 79 81 81 83 84 82 80 79 85 92 93 85 85 81 77 70 67 65 56 39 39 44 45 45 41 43 43 46 47 48 49 49 51 55 59 55 41 47 62 64 69 82
68 71 77 79 79 80 82 82 83 85 89 87 87 83 82 78 74 74 67 57 45 49 49 48 45 48 48 47 49 48 53 48 50 58 59 55 49 50 57 59 60 64 64
55 55 61 70 72 74 77 78 78 76 78 84 82 83 82 81 78 74 69 62 59 58 58 56 50 55 49 49 51 54 50 54 60 63 56 53 56 63 63 60 58 58 61
37 37 44 54 60 67 68 68 67 65 72 82 84 86 88 84 81 76 79 67 65 62 58 52 54 54 56 56 56 54 56 59 64 59 60 61 65 68 68 65 64 63 60
30 32 34 40 46 54 59 61 65 63 71 84 89 89 90 92 87 82 83 74 73 66 60 60 58 59 61 63 63 62 59 62 59 61 63 66 66 68 70 69 70 67 65
24 26 31 36 42 48 53 58 67 76 76 86 97 101 102 94 84 86 90 85 79 75 70 70 67 68 67 69 68 64 63 61 60 65 68 67 66 69 71 71 73 69 72
29 28 30 32 37 42 46 50 60 65 71 78 84 88 90 90 92 87 91 88 83 80 82 74 80 77 77 75 71 66 62 62 65 68 65 65 69 71 72 72 71 68 67
35 38 38 35 36 37 41 47 54 56 59 66 69 76 83 89 81 82 86 86 86 87 89 86 87 86 86 82 76 71 66 64 67 62 62 65 68 70 73 73 69 64 64
31 32 35 37 38 41 45 49 52 54 58 62 64 65 66 63 70 77 78 80 84 86 89 89 86 93 89 84 76 68 66 61 57 59 61 63 66 68 68 68 64 61 60
31 28 28 28 30 32 34 36 39 42 45 45 47 51 54 61 66 75 77 75 81 82 86 84 80 79 76 72 68 64 60 56 56 59 61 61 60 60 63 64 61 57 56
30 27 26 25 27 27 29 31 34 36 38 36 38 42 46 51 51 53 60 69 77 78 80 78 72 69 67 63 60 55 53 55 57 57 56 56 55 56 58 57 56 54 51
30 29 27 27 28 27 28 31 35 36 37 38 41 45 47 50 51 50 56 66 68 67 64 65 64 60 58 55 53 54 56 54 54 54 52 51 48 48 50 50 51 50 46
30 28 29 30 30 29 30 31 33 36 38 40 40 43 45 51 54 54 53 51 52 53 54 54 54 55 57 58 60 54 50 49 47 45 45 44 39 39 39 40 42 41 42
31 31 32 32 33 34 33 34 36 38 39 40 41 43 45 54 54 56 58 59 59 58 57 56 57 58 60 55 49 46 45 40 38 39 39 37 35 35 36 38 37 38 38
32 33 35 35 34 33 32 34 36 37 38 38 39 39 43 48 45 48 54 57 58 58 58 58 56 51 49 46 43 42 38 34 34 34 34 34 34 34 34 35 35 35 35
29 28 28 29 29 30 30 30 31 32 34 35 36 37 37 38 40 40 43 46 49 51 50 49 48 44 41 37 39 39 35 32 31 31 32 32 32 32 33 33 32 32 34
25 26 27 27 27 26 26 26 27 27 27 28 29 30 31 34 37 39 41 43 45 46 46 43 40 37 35 37 37 37 35 32 30 30 31 32 32 31 31 31 30 31 30
19 19 20 20 21 22 22 22 22 23 24 26 28 29 30 31 34 37 38 40 41 41 41 40 36 36 37 37 36 35 34 33 31 30 30 31 31 29 28 28 29 28 28
Wind_Direction_500mb
225 224 221 219 217 219 220 222 218 215 207 205 205 203 203 201 201 201 201 198 194 193 190 186 187 186 191 195 179 166 148 121 97 347 328 326 326 329 335 337 343 344 346
228 226 226 225 225 225 224 225 223 216 211 209 207 204 203 201 200 201 201 197 197 194 191 191 192 207 226 230 222 212 225 243 277 302 313 319 323 325 329 336 336 337 340
231 225 221 224 226 228 226 229 223 217 214 209 210 206 204 202 200 197 197 197 193 189 192 194 208 239 236 236 238 243 256 277 295 309 316 322 321 324 328 330 330 331 334
230 230 226 224 223 227 228 229 225 217 214 212 210 206 204 202 200 198 194 192 190 189 192 202 247 238 233 237 243 254 272 289 304 308 313 317 320 323 326 324 323 330 330
230 234 229 224 227 230 231 229 226 217 214 214 211 207 205 202 202 199 195 191 188 190 202 252 244 235 237 241 249 260 276 288 298 302 307 314 316 323 322 323 322 326 330
233 235 231 225 225 230 231 230 226 218 214 213 211 210 206 201 199 196 194 190 190 203 236 247 240 239 243 247 254 264 274 283 290 296 303 309 316 319 318 316 320 326 327
234 233 231 225 224 228 231 230 226 221 216 214 209 209 208 205 199 195 191 191 205 222 265 236 241 244 246 252 259 266 274 282 291 297 301 308 311 314 307 315 319 320 318
232 231 230 227 226 228 228 229 228 221 217 215 209 210 209 207 203 197 195 200 216 241 260 234 244 247 252 257 263 269 276 281 287 291 294 302 303 305 313 313 314 314 313
234 233 230 228 227 228 227 227 225 222 216 214 213 214 212 209 205 203 203 210 231 248 258 230 244 253 257 260 264 270 275 281 285 290 298 299 299 301 310 310 312 311 313
234 232 232 229 229 229 229 226 226 224 218 212 213 216 216 211 209 208 211 227 234 256 242 232 239 251 256 260 267 271 274 282 287 288 287 291 296 302 311 310 309 307 308
237 234 232 231 228 229 228 228 228 223 213 211 214 219 216 216 216 215 225 227 241 257 245 232 233 250 255 260 266 270 281 284 283 284 290 296 298 303 307 307 308 306 304
227 226 227 228 227 228 228 228 224 224 210 210 215 219 218 216 218 223 233 235 245 257 255 244 241 252 258 262 265 273 278 280 282 288 291 293 296 301 303 306 308 308 304
202 208 214 221 223 225 226 224 219 221 213 211 215 220 221 220 217 228 227 238 245 255 260 250 253 254 258 262 266 271 273 272 277 281 286 289 294 297 301 305 306 308 304
188 193 201 208 212 216 218 220 220 220 218 217 218 219 221 219 226 231 233 239 243 256 257 257 257 256 258 262 263 264 265 271 276 281 286 291 293 296 300 304 305 308 305
180 186 188 198 209 212 216 220 224 228 229 227 228 230 228 226 242 236 238 243 246 255 258 263 260 260 260 263 266 268 269 271 276 283 287 287 290 294 297 301 303 305 303
194 197 198 202 206 208 214 219 223 230 234 234 237 241 242 245 253 239 241 244 252 253 256 258 262 260 260 263 267 269 271 272 277 279 280 283 287 292 297 298 300 301 301
196 199 203 208 214 211 214 218 221 224 226 231 235 239 241 244 243 245 248 250 253 253 256 255 262 261 261 265 269 269 270 274 273 276 279 284 289 291 294 295 298 299 300
185 187 198 204 210 210 214 218 222 226 230 232 235 239 241 242 241 244 246 250 251 250 252 254 262 260 260 262 265 267 269 271 275 279 283 287 290 292 293 296 297 297 298
183 182 186 196 205 208 210 215 222 225 231 233 235 237 238 242 246 240 238 240 245 249 249 256 260 262 260 262 266 265 269 276 282 286 288 290 293 295 296 297 296 295 297
183 186 191 199 205 211 214 218 225 229 233 235 235 240 244 248 247 246 237 239 245 249 251 256 260 260 262 262 263 272 278 282 285 288 290 292 296 298 300 300 297 298 299
196 202 207 211 216 220 224 229 235 239 241 242 243 243 245 248 250 253 254 250 252 254 254 253 253 254 257 264 270 271 277 280 282 284 287 291 297 301 302 302 301 301 297
212 217 224 227 229 231 234 238 241 245 247 247 245 243 241 244 243 243 246 250 250 251 252 252 254 258 263 264 267 271 274 275 276 280 287 293 297 299 301 302 302 299 299
228 231 233 235 238 243 246 249 249 251 253 254 254 252 250 254 252 247 246 248 250 252 254 256 258 257 257 260 268 270 270 272 276 283 289 292 294 295 297 299 299 298 298
232 233 236 240 244 246 248 249 251 253 253 252 253 253 251 250 251 250 249 248 249 252 254 254 254 257 261 265 267 268 269 273 280 284 287 289 292 292 293 294 293 293 294
231 235 238 241 243 244 247 248 248 248 250 251 250 248 247 247 247 249 251 252 252 252 254 256 257 257 261 260 262 267 272 277 280 283 285 288 291 292 292 290 290 289 291
229 232 235 237 240 242 245 247 251 252 252 254 254 253 252 252 252 253 253 255 256 258 259 258 258 257 256 258 261 265 271 274 277 280 283 287 289 289 289 290 288 289 290
Wind_Speed_850mb
59 57 60 65 69 69 72 72 74 75 80 78 73 71 71 68 61 55 49 44 39 33 29 24 17 11 6 3 4 5 5 4 3 2 10 17 24 33 37 43 48 52 54
54 55 61 64 68 69 73 71 75 80 79 75 74 76 75 69 63 56 50 43 37 32 27 22 16 10 8 8 8 8 6 5 6 8 14 22 29 37 42 47 51 55 58
57 57 62 69 70 70 69 69 76 79 76 79 80 80 77 70 64 57 47 40 36 30 24 19 12 14 14 13 12 11 10 11 13 16 22 29 37 43 49 53 57 60 64
62 60 65 70 73 71 73 73 77 79 81 84 84 81 76 68 61 55 50 44 38 31 25 19 16 25 21 19 17 16 16 18 21 25 28 34 41 48 54 61 64 65 70
66 65 66 69 72 73 74 74 77 82 84 85 85 81 76 70 63 57 50 44 37 30 26 19 29 31 27 25 23 22 23 24 27 32 36 40 45 50 58 65 69 73 78
69 70 65 71 75 75 74 74 77 82 88 89 88 84 77 70 62 55 49 46 37 32 22 26 37 34 34 32 29 29 31 32 35 39 42 44 47 51 60 64 65 70 82
72 73 73 75 79 79 76 76 77 82 89 92 90 83 76 68 62 59 56 48 39 32 32 32 41 40 39 37 36 38 39 38 42 45 49 47 50 55 62 61 64 70 74
75 77 80 81 82 82 79 76 77 81 92 95 90 84 77 71 67 64 60 53 41 32 36 38 43 42 42 40 41 44 43 43 45 47 50 49 53 54 52 60 67 74 78
74 79 81 81 83 84 82 80 79 85 92 93 85 85 81 77 70 67 65 56 39 39 44 45 45 41 43 43 46 47 48 49 49 51 55 59 55 41 47 62 64 69 82
68 71 77 79 79 80 82 82 83 85 89 87 87 83 82 78 74 74 67 57 45 49 49 48 45 48 48 47 49 48 53 48 50 58 59 55 49 50 57 59 60 64 64
55 55 61 70 72 74 77 78 78 76 78 84 82 83 82 81 78 74 69 62 59 58 58 56 50 55 49 49 51 54 50 54 60 63 56 53 56 63 63 60 58 58 61
37 37 44 54 60 67 68 68 67 65 72 82 84 86 88 84 81 76 79 67 65 62 58 52 54 54 56 56 56 54 56 59 64 59 60 61 65 68 68 65 64 63 60
30 32 34 40 46 54 59 61 65 63 71 84 89 89 90 92 87 82 83 74 73 66 60 60 58 59 61 63 63 62 59 62 59 61 63 66 66 68 70 69 70 67 65
24 26 31 36 42 48 53 58 67 76 76 86 97 101 102 94 84 86 90 85 79 75 70 70 67 68 67 69 68 64 63 61 60 65 68 67 66 69 71 71 73 69 72
29 28 30 32 37 42 46 50 60 65 71 78 84 88 90 90 92 87 91 88 83 80 82 74 80 77 77 75 71 66 62 62 65 68 65 65 69 71 72 72 71 68 67
35 38 38 35 36 37 41 47 54 56 59 66 69 76 83 89 81 82 86 86 86 87 89 86 87 86 86 82 76 71 66 64 67 62 62 65 68 70 73 73 69 64 64
31 32 35 37 38 41 45 49 52 54 58 62 64 65 66 63 70 77 78 80 84 86 89 89 86 93 89 84 76 68 66 61 57 59 61 63 66 68 68 68 64 61 60
31 28 28 28 30 32 34 36 39 42 45 45 47 51 54 61 66 75 77 75 81 82 86 84 80 79 76 72 68 64 60 56 56 59 61 61 60 60 63 64 61 57 56
30 27 26 25 27 27 29 31 34 36 38 36 38 42 46 51 51 53 60 69 77 78 80 78 72 69 67 63 60 55 53 55 57 57 56 56 55 56 58 57 56 54 51
30 29 27 27 28 27 28 31 35 36 37 38 41 45 47 50 51 50 56 66 68 67 64 65 64 60 58 55 53 54 56 54 54 54 52 51 48 48 50 50 51 50 46
30 28 29 30 30 29 30 31 33 36 38 40 40 43 45 51 54 54 53 51 52 53 54 54 54 55 57 58 60 54 50 49 47 45 45 44 39 39 39 40 42 41 42
31 31 32 32 33 34 33 34 36 38 39 40 41 43 45 54 54 56 58 59 59 58 57 56 57 58 60 55 49 46 45 40 38 39 39 37 35 35 36 38 37 38 38
32 33 35 35 34 33 32 34 36 37 38 38 39 39 43 48 45 48 54 57 58 58 58 58 56 51 49 46 43 42 38 34 34 34 34 34 34 34 34 35 35 35 35
29 28 28 29 29 30 30 30 31 32 34 35 36 37 37 38 40 40 43 46 49 51 50 49 48 44 41 37 39 39 35 32 31 31 32 32 32 32 33 33 32 32 34
25 26 27 27 27 26 26 26 27 27 27 28 29 30 31 34 37 39 41 43 45 46 46 43 40 37 35 37 37 37 35 32 30 30 31 32 32 31 31 31 30 31 30
19 19 20 20 21 22 22 22 22 23 24 26 28 29 30 31 34 37 38 40 41 41 41 40 36 36 37 37 36 35 34 33 31 30 30 31 31 29 28 28 29 28 28
Wind_Direction_850mb
225 224 221 219 217 219 220 222 218 215 207 205 205 203 203 201 201 201 201 198 194 193 190 186 187 186 191 195 179 166 148 121 97 347 328 326 326 329 335 337 343 344 346
228 226 226 225 225 225 224 225 223 216 211 209 207 204 203 201 200 201 201 197 197 194 191 191 192 207 226 230 222 212 225 243 277 302 313 319 323 325 329 336 336 337 340
231 225 221 224 226 228 226 229 223 217 214 209 210 206 204 202 200 197 197 197 193 189 192 194 208 239 236 236 238 243 256 277 295 309 316 322 321 324 328 330 330 331 334
230 230 226 224 223 227 228 229 225 217 214 212 210 206 204 202 200 198 194 192 190 189 192 202 247 238 233 237 243 254 272 289 304 308 313 317 320 323 326 324 323 330 330
230 234 229 224 227 230 231 229 226 217 214 214 211 207 205 202 202 199 195 191 188 190 202 252 244 235 237 241 249 260 276 288 298 302 307 314 316 323 322 323 322 326 330
233 235 231 225 225 230 231 230 226 218 214 213 211 210 206 201 199 196 194 190 190 203 236 247 240 239 243 247 254 264 274 283 290 296 303 309 316 319 318 316 320 326 327
234 233 231 225 224 228 231 230 226 221 216 214 209 209 208 205 199 195 191 191 205 222 265 236 241 244 246 252 259 266 274 282 291 297 301 308 311 314 307 315 319 320 318
232 231 230 227 226 228 228 229 228 221 217 215 209 210 209 207 203 197 195 200 216 241 260 234 244 247 252 257 263 269 276 281 287 291 294 302 303 305 313 313 314 314 313
234 233 230 228 227 228 227 227 225 222 216 214 213 214 212 209 205 203 203 210 231 248 258 230 244 253 257 260 264 270 275 281 285 290 298 299 299 301 310 310 312 311 313
234 232 232 229 229 229 229 226 226 224 218 212 213 216 216 211 209 208 211 227 234 256 242 232 239 251 256 260 267 271 274 282 287 288 287 291 296 302 311 310 309 307 308
237 234 232 231 228 229 228 228 228 223 213 211 214 219 216 216 216 215 225 227 241 257 245 232 233 250 255 260 266 270 281 284 283 284 290 296 298 303 307 307 308 306 304
227 226 227 228 227 228 228 228 224 224 210 210 215 219 218 216 218 223 233 235 245 257 255 244 241 252 258 262 265 273 278 280 282 288 291 293 296 301 303 306 308 308 304
202 208 214 221 223 225 226 224 219 221 213 211 215 220 221 220 217 228 227 238 245 255 260 250 253 254 258 262 266 271 273 272 277 281 286 289 294 297 301 305 306 308 304
188 193 201 208 212 216 218 220 220 220 218 217 218 219 221 219 226 231 233 239 243 256 257 257 257 256 258 262 263 264 265 271 276 281 286 291 293 296 300 304 305 308 305
180 186 188 198 209 212 216 220 224 228 229 227 228 230 228 226 242 236 238 243 246 255 258 263 260 260 260 263 266 268 269 271 276 283 287 287 290 294 297 301 303 305 303
194 197 198 202 206 208 214 219 223 230 234 234 237 241 242 245 253 239 241 244 252 253 256 258 262 260 260 263 267 269 271 272 277 279 280 283 287 292 297 298 300 301 301
196 199 203 208 214 211 214 218 221 224 226 231 235 239 241 244 243 245 248 250 253 253 256 255 262 261 261 265 269 269 270 274 273 276 279 284 289 291 294 295 298 299 300
185 187 198 204 210 210 214 218 222 226 230 232 235 239 241 242 241 244 246 250 251 250 252 254 262 260 260 262 265 267 269 271 275 279 283 287 290 292 293 296 297 297 298
183 182 186 196 205 208 210 215 222 225 231 233 235 237 238 242 246 240 238 240 245 249 249 256 260 262 260 262 266 265 269 276 282 286 288 290 293 295 296 297 296 295 297
183 186 191 199 205 211 214 218 225 229 233 235 235 240 244 248 247 246 237 239 245 249 251 256 260 260 262 262 263 272 278 282 285 288 290 292 296 298 300 300 297 298 299
196 202 207 211 216 220 224 229 235 239 241 242 243 243 245 248 250 253 254 250 252 254 254 253 253 254 257 264 270 271 277 280 282 284 287 291 297 301 302 302 301 301 297
212 217 224 227 229 231 234 238 241 245 247 247 245 243 241 244 243 243 246 250 250 251 252 252 254 258 263 264 267 271 274 275 276 280 287 293 297 299 301 302 302 299 299
228 231 233 235 238 243 246 249 249 251 253 254 254 252 250 254 252 247 246 248 250 252 254 256 258 257 257 260 268 270 270 272 276 283 289 292 294 295 297 299 299 298 298
232 233 236 240 244 246 248 249 251 253 253 252 253 253 251 250 251 250 249 248 249 252 254 254 254 257 261 265 267 268 269 273 280 284 287 289 292 292 293 294 293 293 294
231 235 238 241 243 244 247 248 248 248 250 251 250 248 247 247 247 249 251 252 252 252 254 256 257 257 261 260 262 267 272 277 280 283 285 288 291 292 292 290 290 289 291
229 232 235 237 240 242 245 247 251 252 252 254 254 253 252 252 252 253 253 255 256 258 259 258 258 257 256 258 261 265 271 274 277 280 283 287 289 289 289 290 288 289 290